Tracking 28125 objects as of 3-Oct-2023
HD Live streaming from Space Station
objects crossing your sky now

RADFXSAT-2 (AO-109)

Track RADFXSAT-2 (AO-109) now!
10-day predictions
RADFXSAT-2 (AO-109) is classified as:


NORAD ID: 47311
Int'l Code: 2021-002C
Perigee: 423.8 km
Apogee: 446.9 km
Inclination: 60.7 °
Period: 93.1 minutes
Semi major axis: 6806 km
RCS: Unknown
Launch date: January 17, 2021
Source: United States (US)
Launch site: Pegasus launched from Western Range Air Space (WRAS)

Uplink (MHz): 145.860-145.890
Downlink (MHz): 435.790-435.760
Beacon (MHz): 435.750
Mode: 1k2 BPSK SSB CW
Call sign:
Status: Active

Your satellite tracking list
Your tracking list is empty




NASA's NSSDC Master Catalog

Two Line Element Set (TLE):
1 47311U 21002C   23275.61622525  .00053151  00000-0  10705-2 0  9999
2 47311  60.6796   3.5995 0016959   0.5551 359.5562 15.46067394150858
Source of the keplerian elements: AMSAT